EW3286 Weather Reports


time (UTC)temp
C
wind
direction
speed
KPH
gust
KPH
rain 1hr
cm
rain 24hr
cm
rain mn
cm
humidity
%
barometer
mb
20260507120026 3 285 0.0 0.0 0.00 0.00 0.00 68 1012.1
20260507114525 3 286 0.0 0.0 0.00 0.00 0.00 68 1012.3
20260507113024 3 338 0.0 0.0 0.00 0.00 0.00 69 1012.0
20260507111520 3 316 0.0 0.0 0.00 0.00 0.00 69 1012.2
20260507110020 3 347 0.0 0.0 0.00 0.00 0.00 70 1012.3
20260507104519 3 340 0.0 0.0 0.00 0.00 0.00 72 1012.2
20260507103027 3 274 0.0 0.0 0.00 0.00 0.00 71 1012.7
20260507101517 2 271 0.0 0.0 0.00 0.00 0.00 73 1012.7
20260507100024 2 281 0.0 0.0 0.00 0.00 0.00 73 1012.6
20260507094516 2 239 0.0 0.0 0.00 0.00 0.00 72 1012.7
20260507093015 2 290 0.0 0.0 0.00 0.00 0.00 73 1012.5
20260507091517 2 300 0.0 0.0 0.00 0.00 0.00 73 1012.6
20260507090013 2 350 0.0 0.0 0.00 0.00 0.00 73 1012.3
20260507084511 1 66 0.0 0.0 0.00 0.00 0.00 71 1012.5
20260507083010 1 56 0.0 0.0 0.00 0.00 0.00 72 1012.7
20260507081509 1 55 0.0 0.0 0.00 0.00 0.00 72 1012.8
20260507080006 2 53 0.0 0.0 0.00 0.00 0.00 71 1012.9
20260507074502 2 49 0.0 0.0 0.00 0.00 0.00 68 1013.1
20260507073058 3 40 0.0 0.0 0.00 0.00 0.00 64 1013.3
20260507071609 3 360 0.0 0.0 0.00 0.00 0.00 64 1013.6
20260507070052 4 66 0.0 0.0 0.00 0.00 0.00 62 1014.2
20260507064549 5 267 0.0 0.0 0.00 0.00 0.00 63 1014.5
20260507063047 5 311 0.0 0.0 0.00 0.00 0.00 62 1014.6
20260507061542 5 309 0.0 0.0 0.00 0.00 0.00 62 1014.6
20260507060041 6 331 0.0 0.0 0.00 0.00 0.00 59 1014.6
20260507054540 6 5 0.0 0.0 0.00 0.00 0.00 61 1014.6
20260507053109 6 9 0.0 0.0 0.00 0.00 0.00 59 1014.6
20260507051543 6 302 0.0 0.0 0.00 0.00 0.00 61 1014.8
20260507050037 6 302 0.0 0.0 0.00 0.00 0.00 58 1014.9
20260507044532 6 306 0.0 0.0 0.00 0.00 0.00 60 1015.0
20260507043033 6 31 0.0 0.0 0.00 0.00 0.00 55 1014.8
20260507041529 7 26 0.0 0.0 0.00 0.00 0.00 55 1014.8
20260507040029 7 39 0.0 0.0 0.00 0.00 0.00 52 1014.9
20260507034535 7 319 0.0 0.0 0.00 0.00 0.00 53 1015.1
20260507033125 8 342 0.0 0.0 0.00 0.00 0.00 53 1015.2
20260507031524 8 355 0.0 0.0 0.00 0.00 0.00 51 1015.2
20260507030027 8 346 0.0 0.0 0.00 0.00 0.00 50 1015.3
20260507024523 8 5 0.0 0.0 0.00 0.00 0.00 50 1015.4
20260507023122 8 250 0.0 0.0 0.00 0.00 0.00 50 1015.4
20260507021522 8 250 0.0 0.0 0.00 0.00 0.00 47 1015.3
20260507020022 9 250 0.0 0.0 0.00 0.00 0.00 44 1015.2
20260507014521 9 250 0.0 0.0 0.00 0.00 0.00 42 1015.2
20260507013021 9 245 0.0 0.0 0.00 0.00 0.00 41 1015.2
20260507011522 10 259 0.0 0.0 0.00 0.00 0.00 40 1015.2
20260507010024 10 237 0.0 0.0 0.00 0.00 0.00 40 1015.3
20260507004522 10 256 0.0 0.0 0.00 0.00 0.00 39 1015.3
20260507003019 10 223 0.0 0.0 0.00 0.00 0.00 38 1015.2
20260507001518 10 209 0.0 0.0 0.00 0.00 0.00 38 1015.3
20260507000017 10 223 0.0 0.0 0.00 0.00 0.00 38 1015.3
20260506234515 10 219 0.0 0.0 0.00 0.00 0.00 37 1015.3
20260506233015 11 224 0.0 0.0 0.00 0.00 0.00 37 1015.3
20260506231515 11 234 0.0 0.0 0.00 0.00 0.00 36 1015.3
20260506230013 11 189 0.0 0.0 0.00 0.00 0.00 36 1015.4
20260506224513 11 192 0.0 0.0 0.00 0.00 0.00 36 1015.5
20260506223010 11 221 0.0 0.0 0.00 0.00 0.00 36 1015.6
20260506221509 11 215 0.0 0.0 0.00 0.00 0.00 38 1015.7
20260506220002 10 173 0.0 0.0 0.00 0.00 0.00 38 1015.9
20260506214501 10 167 0.0 0.0 0.00 0.00 0.00 41 1016.0
20260506213001 10 202 0.0 0.0 0.00 0.00 0.00 41 1016.3
20260506211607 10 203 0.0 0.0 0.00 0.00 0.00 39 1016.4
20260506210057 10 203 0.0 0.0 0.00 0.00 0.00 41 1016.4
20260506204554 10 166 0.0 0.0 0.00 0.00 0.00 41 1016.7
20260506203052 10 178 0.0 0.0 0.00 0.00 0.00 42 1016.9
20260506201551 9 182 0.0 0.0 0.00 0.00 0.00 41 1017.0
20260506200055 9 207 0.0 0.0 0.00 0.00 0.00 45 1017.2
20260506194545 8 185 0.0 0.0 0.00 0.00 0.00 43 1017.3
20260506193042 8 194 0.0 0.0 0.00 0.00 0.00 43 1017.5
20260506191543 8 183 0.0 0.0 0.00 0.00 0.00 43 1017.7
20260506190039 8 176 0.0 0.0 0.00 0.00 0.00 44 1017.7
20260506184537 8 227 0.0 0.0 0.00 0.00 0.00 44 1017.7
20260506183034 8 216 0.0 0.0 0.00 0.00 0.00 45 1017.9
20260506181531 7 200 0.0 0.0 0.00 0.00 0.00 46 1018.2
20260506180029 7 217 0.0 0.0 0.00 0.00 0.00 47 1018.3
20260506174525 7 221 0.0 0.0 0.00 0.00 0.00 48 1018.4
20260506173025 7 229 0.0 0.0 0.00 0.00 0.00 48 1018.5
20260506171523 6 196 0.0 0.0 0.00 0.00 0.00 49 1018.5
20260506170018 6 216 0.0 0.0 0.00 0.00 0.00 50 1018.5
20260506164516 6 191 0.0 0.0 0.00 0.00 0.00 48 1018.5
20260506163013 6 219 0.0 0.0 0.00 0.00 0.00 48 1018.6
20260506161510 6 211 0.0 0.0 0.00 0.00 0.00 51 1018.6
20260506160007 6 202 0.0 0.0 0.00 0.00 0.00 49 1018.6
20260506154504 6 211 0.0 0.0 0.00 0.00 0.00 51 1018.5
20260506153005 6 215 0.0 0.0 0.00 0.00 0.00 53 1018.6
20260506151601 5 218 0.0 0.0 0.00 0.00 0.00 52 1018.7
20260506150100 5 229 0.0 0.0 0.00 0.00 0.00 52 1018.7
20260506144605 5 197 0.0 0.0 0.00 0.00 0.00 53 1018.7
20260506143050 5 206 0.0 0.0 0.00 0.00 0.00 54 1018.7
20260506141546 5 213 0.0 0.0 0.00 0.00 0.00 55 1018.7
20260506140046 4 212 0.0 0.0 0.00 0.00 0.00 57 1018.6
20260506134543 4 217 0.0 0.0 0.00 0.00 0.00 62 1018.6
20260506133044 4 237 0.0 0.0 0.00 0.00 0.00 62 1018.6
20260506131537 3 209 0.0 0.0 0.00 0.00 0.00 64 1018.7
20260506130034 3 232 0.0 0.0 0.00 0.00 0.00 65 1018.5
20260506124528 3 225 0.0 0.0 0.00 0.00 0.00 67 1018.4
20260506123025 2 229 0.0 0.0 0.00 0.00 0.00 72 1018.3
20260506121525 2 250 0.0 0.0 0.00 0.00 0.00 75 1018.1